Location: Kings Park
(40.8862°N, 73.2573°W)
Time: 05:33:50
(UTC+00:00)

Cosmos 1758 Rocket - Pass Details

Date: 29 October 2020
Orbit: 601 x 637 km, 82.5° (Epoch: 29 November)

Event Time Altitude Azimuth Distance (km) Brightness Sun altitude
Rises 22:20:33 0° 347° (NNW) 2,900 7.0 -6.0°
Reaches altitude 10° 22:22:50 10° 343° (NNW) 1,983 6.2 -6.4°
Maximum altitude 22:27:07 55° 266° (W) 733 4.4 -7.2°
Drops below altitude 10° 22:31:20 10° 189° (S) 1,949 6.4 -8.0°
Sets 22:33:33 0° 184° (S) 2,843 7.2 -8.4°
